Athens Eleftherios, Greece

11:56 AM EEST on August 21, 2017 (GMT +0300)
Eleftherios Venizelos International

Weather History for LGAV - June, 2013

Change the Weather History Date:

Sunday, June 30, 2013

  Actual Average (LGAT) Record (LGAT)
Temperature  
Mean Temperature 76 °F -  
Max Temperature 84 °F 89 °F 104 °F (2017)
Min Temperature 68 °F 71 °F 66 °F (2000)
Cooling Degree Days 12    
Growing Degree Days 26 (Base 50)    
Moisture  
Dew Point 50 °F    
Average Humidity 40    
Maximum Humidity 68    
Minimum Humidity 26    
Precipitation  
Precipitation 0.00 in - - ()
Sea Level Pressure  
Sea Level Pressure 29.79 in    
Wind  
Wind Speed 7 mph ()    
Max Wind Speed 20 mph    
Max Gust Speed 29 mph    
Visibility 6.2 miles    
Events      
Averages and records for this station are not official NWS values.
T = Trace of Precipitation, MM = Missing Value Source: Averaged Metar Reports

Daily Weather History Graph

Daily Weather History Graph

Search for Another Location

Airport or City:

Trip Planner

Search our weather history database for the weather conditions in past years. The results will help you decide how hot, cold, wet, or windy it might be!

Date:

Astronomy

Jun. 30, 2013 Rise Set
Actual Time 6:05 AM EEST 8:50 PM EEST
Civil Twilight 5:33 AM EEST 9:21 PM EEST
Nautical Twilight 4:54 AM EEST 10:01 PM EEST
Astronomical Twilight 4:10 AM EEST 10:45 PM EEST
Moon 12:48 AM EEST (6/30) 1:50 PM EEST (6/30)
Length of Visible Light 15h 48m
Length of Day
14h 45m
Waning Gibbous, 48% of the Moon is Illuminated
Jun 30
Waning Gibbous
Jul 8
New
Jul 16
First Quarter
Jul 22
Full
Jul 29
Last Quarter

Hourly Weather History & Observations

Time (EEST) Temp. Heat Index Dew Point Humidity Pressure Visibility Wind Dir Wind Speed Gust Speed Precip Events Conditions
12:20 AM 77.0 °F - 44.6 °F 32% 29.77 in - NW 11.5 mph 28.8 mph N/A   Clear
12:50 AM 75.2 °F - 44.6 °F 34% 29.77 in - NW 10.4 mph - N/A   Clear
1:20 AM 75.2 °F - 44.6 °F 34% 29.77 in - West 19.6 mph - N/A   Clear
1:50 AM 73.4 °F - 44.6 °F 36% 29.77 in - NW 10.4 mph - N/A   Clear
2:20 AM 73.4 °F - 46.4 °F 38% 29.77 in - NNW 5.8 mph - N/A   Clear
2:50 AM 73.4 °F - 46.4 °F 38% 29.77 in - NNW 4.6 mph - N/A   Clear
3:20 AM 73.4 °F - 46.4 °F 38% 29.77 in - Variable 3.5 mph - N/A   Clear
3:50 AM 71.6 °F - 48.2 °F 43% 29.77 in - NW 4.6 mph - N/A   Clear
4:20 AM 73.4 °F - 50.0 °F 44% 29.77 in - WNW 9.2 mph - N/A   Clear
4:50 AM 73.4 °F - 50.0 °F 44% 29.77 in - Variable 3.5 mph - N/A   Clear
5:20 AM 71.6 °F - 50.0 °F 46% 29.77 in - Variable 2.3 mph - N/A   Clear
5:50 AM 71.6 °F - 50.0 °F 46% 29.77 in - Variable 2.3 mph - N/A   Clear
6:20 AM 69.8 °F - 50.0 °F 49% 29.77 in - Variable 3.5 mph - N/A   Clear
6:50 AM 69.8 °F - 48.2 °F 46% 29.77 in - East 5.8 mph - N/A   Clear
7:20 AM 73.4 °F - 48.2 °F 41% 29.77 in - ESE 4.6 mph - N/A   Clear
7:50 AM 75.2 °F - 46.4 °F 36% 29.77 in - East 6.9 mph - N/A   Clear
8:20 AM 77.0 °F - 46.4 °F 34% 29.77 in - Variable 1.2 mph - N/A   Clear
8:50 AM 77.0 °F - 46.4 °F 34% 29.77 in - Variable 1.2 mph - N/A   Clear
9:20 AM 78.8 °F - 46.4 °F 32% 29.80 in - Variable 2.3 mph - N/A   Clear
9:50 AM 78.8 °F - 46.4 °F 32% 29.80 in - West 4.6 mph - N/A   Clear
10:20 AM 80.6 °F - 44.6 °F 28% 29.80 in - ESE 5.8 mph - N/A   Clear
10:50 AM 80.6 °F - 44.6 °F 28% 29.77 in 6.2 mi NNW 6.9 mph - N/A   Partly Cloudy
11:20 AM 80.6 °F - 44.6 °F 28% 29.77 in 6.2 mi WSW 4.6 mph - N/A   Partly Cloudy
11:50 AM 80.6 °F - 48.2 °F 32% 29.80 in 6.2 mi WSW 6.9 mph - N/A   Partly Cloudy
12:20 PM 80.6 °F - 48.2 °F 32% 29.77 in 6.2 mi NE 6.9 mph - N/A   Partly Cloudy
12:50 PM 82.4 °F - 48.2 °F 30% 29.77 in 6.2 mi ESE 8.1 mph - N/A   Scattered Clouds
1:20 PM 80.6 °F - 48.2 °F 32% 29.77 in 6.2 mi East 6.9 mph - N/A   Scattered Clouds
1:50 PM 82.4 °F - 48.2 °F 30% 29.77 in 6.2 mi East 11.5 mph - N/A   Scattered Clouds
2:20 PM 82.4 °F - 44.6 °F 26% 29.77 in 6.2 mi East 12.7 mph - N/A   Scattered Clouds
2:50 PM 84.2 °F - 48.2 °F 29% 29.77 in 6.2 mi East 12.7 mph - N/A   Mostly Cloudy
3:20 PM 82.4 °F - 48.2 °F 30% 29.80 in 6.2 mi East 9.2 mph - N/A   Mostly Cloudy
3:50 PM 80.6 °F - 50.0 °F 34% 29.80 in 6.2 mi East 10.4 mph - N/A   Mostly Cloudy
4:20 PM 80.6 °F - 51.8 °F 37% 29.80 in 6.2 mi East 9.2 mph - N/A   Scattered Clouds
4:50 PM 80.6 °F 80.3 °F 53.6 °F 39% 29.80 in 6.2 mi East 8.1 mph - N/A   Scattered Clouds
5:20 PM 80.6 °F 80.5 °F 55.4 °F 42% 29.80 in 6.2 mi ESE 10.4 mph - N/A   Scattered Clouds
5:50 PM 78.8 °F - 55.4 °F 44% 29.80 in 6.2 mi SE 10.4 mph - N/A   Scattered Clouds
6:20 PM 78.8 °F - 57.2 °F 47% 29.80 in 6.2 mi East 10.4 mph - N/A   Mostly Cloudy
6:50 PM 77.0 °F - 57.2 °F 50% 29.80 in 6.2 mi East 10.4 mph - N/A   Scattered Clouds
7:20 PM 77.0 °F - 55.4 °F 47% 29.80 in 6.2 mi SE 8.1 mph - N/A   Scattered Clouds
8:20 PM 77.0 °F - 55.4 °F 47% 29.83 in 6.2 mi SSW 8.1 mph - N/A   Mostly Cloudy
8:50 PM 75.2 °F - 55.4 °F 50% 29.83 in 6.2 mi SSW 6.9 mph - N/A   Scattered Clouds
9:20 PM 75.2 °F - 55.4 °F 50% 29.86 in 6.2 mi WSW 2.3 mph - N/A   Partly Cloudy
9:50 PM 73.4 °F - 55.4 °F 53% 29.86 in 6.2 mi SSW 3.5 mph - N/A   Partly Cloudy
10:20 PM 73.4 °F - 57.2 °F 57% 29.86 in 6.2 mi SSW 2.3 mph - N/A   Partly Cloudy
10:50 PM 69.8 °F - 55.4 °F 60% 29.89 in 6.2 mi West 2.3 mph - N/A   Partly Cloudy
11:20 PM 69.8 °F - 57.2 °F 64% 29.89 in 6.2 mi NNW 2.3 mph - N/A   Partly Cloudy
11:50 PM 68.0 °F - 57.2 °F 68% 29.89 in 6.2 mi North 3.5 mph - N/A   Partly Cloudy